Year,Month,Day,Hour,Minute,Value (Times are PST for barometer in hPa)
2023,12,25,00,02,911.79
2023,12,25,00,03,911.79
2023,12,25,00,04,911.79
2023,12,25,00,05,911.79
2023,12,25,00,06,911.79
2023,12,25,00,07,911.79
2023,12,25,00,08,911.79
2023,12,25,00,09,911.79
2023,12,25,00,10,911.79
2023,12,25,00,11,911.79
2023,12,25,00,12,911.79
2023,12,25,00,13,911.79
2023,12,25,00,14,911.70
2023,12,25,00,15,910.02
2023,12,25,00,16,910.02
2023,12,25,00,17,910.02
2023,12,25,00,18,910.02
2023,12,25,00,19,910.02
2023,12,25,00,20,910.02
2023,12,25,00,21,910.02
2023,12,25,00,50,906.10
2023,12,25,00,51,906.10
2023,12,25,00,52,906.10
2023,12,25,00,53,906.10
2023,12,25,00,54,906.10
2023,12,25,00,55,906.25
2023,12,25,00,56,908.91
2023,12,25,00,57,908.91
2023,12,25,00,58,908.91
2023,12,25,00,59,908.91
2023,12,25,01,00,908.91
2023,12,25,01,01,908.91
2023,12,25,01,02,908.91
2023,12,25,01,03,908.91
2023,12,25,01,04,908.91
2023,12,25,01,05,908.91
2023,12,25,01,06,908.91
2023,12,25,01,07,908.91
2023,12,25,01,08,908.91
2023,12,25,01,09,908.91
2023,12,25,01,10,908.91
2023,12,25,01,11,908.91
2023,12,25,01,12,908.91
2023,12,25,01,13,908.91
2023,12,25,01,14,908.91
2023,12,25,01,15,908.91
2023,12,25,01,16,908.91
2023,12,25,01,17,908.91
2023,12,25,01,18,908.91
2023,12,25,01,19,908.91
2023,12,25,01,20,908.91
2023,12,25,01,21,908.91
2023,12,25,01,22,908.91
2023,12,25,01,23,911.83
2023,12,25,01,24,967.32
2023,12,25,01,25,967.32
2023,12,25,01,26,967.32
2023,12,25,01,27,967.32
2023,12,25,01,28,967.32
2023,12,25,01,29,967.32
2023,12,25,01,30,967.32
2023,12,25,01,31,967.32
2023,12,25,01,32,967.32
2023,12,25,01,33,967.32
2023,12,25,01,34,967.32
2023,12,25,01,35,967.32
2023,12,25,01,36,967.32
2023,12,25,01,37,967.32
2023,12,25,01,38,967.32
2023,12,25,01,39,967.32
2023,12,25,01,40,967.32
2023,12,25,01,41,967.32
2023,12,25,01,42,967.32
2023,12,25,01,43,967.32
2023,12,25,01,44,967.32
2023,12,25,01,45,967.32
2023,12,25,01,46,967.32
2023,12,25,01,47,967.32
2023,12,25,01,48,967.32
2023,12,25,01,49,967.32
2023,12,25,01,50,967.32
2023,12,25,01,51,967.32
2023,12,25,01,52,967.32
2023,12,25,01,53,967.32
2023,12,25,01,54,967.32
2023,12,25,01,55,967.32
2023,12,25,01,56,967.32
2023,12,25,01,57,967.32
2023,12,25,01,58,967.32
2023,12,25,01,59,967.32
2023,12,25,02,00,967.32
2023,12,25,02,01,967.32
2023,12,25,02,02,967.32
2023,12,25,02,03,967.32
2023,12,25,02,04,967.32
2023,12,25,02,05,967.32
2023,12,25,02,06,967.32
2023,12,25,02,07,966.97
2023,12,25,02,08,960.38
2023,12,25,02,09,960.38
2023,12,25,02,10,960.38
2023,12,25,02,11,960.38
2023,12,25,02,12,960.38
2023,12,25,02,13,960.38
2023,12,25,02,14,960.38
2023,12,25,02,15,960.38
2023,12,25,02,16,960.38
2023,12,25,02,17,960.38
2023,12,25,02,18,960.38
2023,12,25,02,19,960.38
2023,12,25,02,20,960.38
2023,12,25,02,21,960.38
2023,12,25,02,22,960.38
2023,12,25,02,23,960.38
2023,12,25,02,24,960.38
2023,12,25,02,25,960.80
2023,12,25,02,26,968.74
2023,12,25,02,27,968.82
2023,12,25,02,28,970.20
2023,12,25,02,29,970.20
2023,12,25,02,30,970.20
2023,12,25,02,31,970.20
2023,12,25,02,32,970.20
2023,12,25,02,33,970.20
2023,12,25,02,34,970.02
2023,12,25,02,35,966.61
2023,12,25,02,36,966.61
2023,12,25,02,37,966.61
2023,12,25,02,38,966.61
2023,12,25,02,39,966.61
2023,12,25,02,40,966.61
2023,12,25,02,41,966.61
2023,12,25,02,42,966.61
2023,12,25,02,43,966.61
2023,12,25,02,44,966.61
2023,12,25,02,45,966.61
2023,12,25,02,46,966.61
2023,12,25,02,47,966.61
2023,12,25,02,48,966.61
2023,12,25,02,49,966.61
2023,12,25,02,50,966.61
2023,12,25,02,51,966.61
2023,12,25,02,52,966.61
2023,12,25,02,53,966.61
2023,12,25,02,54,966.61
2023,12,25,02,55,966.61
2023,12,25,02,56,966.61
2023,12,25,02,57,966.61
2023,12,25,02,58,966.61
2023,12,25,02,59,966.61
2023,12,25,03,00,966.61
2023,12,25,03,01,966.61
2023,12,25,03,02,966.61
2023,12,25,03,03,966.61
2023,12,25,03,04,966.61
2023,12,25,03,05,966.61
2023,12,25,03,06,966.61
2023,12,25,03,07,966.61
2023,12,25,03,08,966.61
2023,12,25,03,09,966.61
2023,12,25,03,10,966.61
2023,12,25,03,11,966.61
2023,12,25,03,12,966.61
2023,12,25,03,13,966.61
2023,12,25,03,14,966.61
2023,12,25,03,15,966.61
2023,12,25,03,16,966.61
2023,12,25,03,17,966.61
2023,12,25,03,18,966.61
2023,12,25,03,19,966.61
2023,12,25,03,20,966.61
2023,12,25,03,21,966.61
2023,12,25,03,22,966.61
2023,12,25,03,23,966.61
2023,12,25,03,24,966.61
2023,12,25,03,25,966.61
2023,12,25,03,26,966.61
2023,12,25,03,27,966.61
2023,12,25,03,28,966.61
2023,12,25,03,29,966.61
2023,12,25,03,30,966.61
2023,12,25,03,31,966.61
2023,12,25,03,32,966.61
2023,12,25,03,33,966.61
2023,12,25,03,34,966.61
2023,12,25,03,35,965.74
2023,12,25,03,36,949.21
2023,12,25,03,37,948.70
2023,12,25,03,38,948.70
2023,12,25,03,39,948.70
2023,12,25,03,40,948.70
2023,12,25,03,41,948.70
2023,12,25,03,42,948.70
2023,12,25,03,43,948.70
2023,12,25,03,44,948.70
2023,12,25,03,45,948.70
2023,12,25,03,46,948.70
2023,12,25,03,47,948.70
2023,12,25,03,48,948.70
2023,12,25,03,49,948.28
2023,12,25,03,50,940.64
2023,12,25,03,51,940.83
2023,12,25,03,52,944.43
2023,12,25,03,53,944.43
2023,12,25,03,54,944.43
2023,12,25,03,55,944.43
2023,12,25,03,56,944.43
2023,12,25,03,57,944.43
2023,12,25,03,58,944.43
2023,12,25,03,59,944.43
2023,12,25,04,00,944.43
2023,12,25,04,01,944.43
2023,12,25,04,02,944.43
2023,12,25,04,03,945.65
2023,12,25,04,04,968.78
2023,12,25,04,05,968.78
2023,12,25,04,06,968.78
2023,12,25,04,07,968.78
2023,12,25,04,08,968.78
2023,12,25,04,09,968.78
2023,12,25,04,10,968.78
2023,12,25,04,11,968.78
2023,12,25,04,12,968.78
2023,12,25,04,13,968.78
2023,12,25,04,14,968.78
2023,12,25,04,15,968.78
2023,12,25,04,16,968.78
2023,12,25,04,17,968.78
2023,12,25,04,18,968.78
2023,12,25,04,19,968.78
2023,12,25,04,20,968.78
2023,12,25,04,21,968.78
2023,12,25,04,22,968.78
2023,12,25,04,23,968.78
2023,12,25,04,24,968.78
2023,12,25,04,25,968.78
2023,12,25,04,26,968.78
2023,12,25,04,27,968.78
2023,12,25,04,28,968.78
2023,12,25,04,29,968.78
2023,12,25,04,30,968.78
2023,12,25,04,31,968.78
2023,12,25,04,32,968.78
2023,12,25,04,33,968.78
2023,12,25,04,34,968.78
2023,12,25,04,35,968.78
2023,12,25,04,36,968.78
2023,12,25,04,37,968.78
2023,12,25,04,38,968.78
2023,12,25,04,39,968.50
2023,12,25,04,40,963.22
2023,12,25,04,41,963.16
2023,12,25,04,42,961.91
2023,12,25,04,43,961.36
2023,12,25,04,44,961.36
2023,12,25,04,45,961.36
2023,12,25,04,46,961.36
2023,12,25,04,47,959.99
2023,12,25,04,48,960.40
2023,12,25,04,49,960.21
2023,12,25,04,50,960.21
2023,12,25,04,51,960.21
2023,12,25,04,52,960.21
2023,12,25,04,53,960.21
2023,12,25,04,54,960.21
2023,12,25,04,55,960.21
2023,12,25,04,56,960.21
2023,12,25,04,57,960.21
2023,12,25,04,58,960.21
2023,12,25,04,59,960.21
2023,12,25,05,00,960.21
2023,12,25,05,01,960.21
2023,12,25,05,02,960.21
2023,12,25,05,03,960.21
2023,12,25,05,04,960.21
2023,12,25,05,05,960.21
2023,12,25,05,06,960.21
2023,12,25,05,07,960.21
2023,12,25,05,08,960.21
2023,12,25,05,09,960.21
2023,12,25,05,10,960.21
2023,12,25,05,11,960.21
2023,12,25,05,12,960.66
2023,12,25,05,13,969.22
2023,12,25,05,14,969.22
2023,12,25,05,15,969.22
2023,12,25,05,16,968.88
2023,12,25,05,17,962.75
2023,12,25,05,18,962.14
2023,12,25,05,19,962.14
2023,12,25,05,20,962.14
2023,12,25,05,21,962.14
2023,12,25,05,22,962.14
2023,12,25,05,23,962.14
2023,12,25,05,24,962.14
2023,12,25,05,25,962.14
2023,12,25,05,26,962.14
2023,12,25,05,27,962.14
2023,12,25,05,28,962.14
2023,12,25,05,29,962.14
2023,12,25,05,30,962.14
2023,12,25,05,31,962.14
2023,12,25,05,32,961.98
2023,12,25,05,33,957.47
2023,12,25,05,34,957.47
2023,12,25,05,35,957.47
2023,12,25,05,36,957.47
2023,12,25,05,37,957.47
2023,12,25,05,38,957.47
2023,12,25,05,39,957.47
2023,12,25,05,40,957.47
2023,12,25,05,41,957.47
2023,12,25,05,42,957.47
2023,12,25,05,43,957.47
2023,12,25,05,44,957.47
2023,12,25,05,45,957.47
2023,12,25,05,46,957.47
2023,12,25,05,47,957.47
2023,12,25,05,48,957.47
2023,12,25,05,49,957.47
2023,12,25,05,50,957.47
2023,12,25,05,51,957.47
2023,12,25,05,52,957.47
2023,12,25,05,53,957.47
2023,12,25,05,54,957.47
2023,12,25,05,55,957.47
2023,12,25,05,56,957.47
2023,12,25,05,57,957.47
2023,12,25,05,58,957.47
2023,12,25,05,59,957.47
2023,12,25,06,00,957.47
2023,12,25,06,01,957.47
2023,12,25,06,02,957.47
2023,12,25,06,03,957.47
2023,12,25,06,04,957.47
2023,12,25,06,05,957.47
2023,12,25,06,06,957.47
2023,12,25,06,07,957.47
2023,12,25,06,08,957.97
2023,12,25,06,09,967.46
2023,12,25,06,10,967.46
2023,12,25,06,11,967.46
2023,12,25,06,12,967.46
2023,12,25,06,13,967.46
2023,12,25,06,14,967.46
2023,12,25,06,15,967.46
2023,12,25,06,16,967.46
2023,12,25,06,17,967.46
2023,12,25,06,18,967.46
2023,12,25,06,19,967.46
2023,12,25,06,20,966.53
2023,12,25,06,21,966.95
2023,12,25,06,22,966.95
2023,12,25,06,23,966.95
2023,12,25,06,24,966.95
2023,12,25,06,25,966.95
2023,12,25,06,26,966.95
2023,12,25,06,27,966.95
2023,12,25,06,28,966.95
2023,12,25,06,29,966.95
2023,12,25,06,30,966.95
2023,12,25,06,31,966.95
2023,12,25,06,32,966.95
2023,12,25,06,33,966.95
2023,12,25,06,34,966.88
2023,12,25,06,35,965.46
2023,12,25,06,36,965.46
2023,12,25,06,37,965.46
2023,12,25,06,38,965.46
2023,12,25,06,39,965.46
2023,12,25,06,40,965.46
2023,12,25,06,41,965.46
2023,12,25,06,42,965.46
2023,12,25,06,43,965.46
2023,12,25,06,44,965.46
2023,12,25,06,45,965.46
2023,12,25,06,46,965.46
2023,12,25,06,47,965.46
2023,12,25,06,48,965.46
2023,12,25,06,49,965.46
2023,12,25,06,50,965.46
2023,12,25,06,51,965.46
2023,12,25,06,52,965.46
2023,12,25,06,53,965.46
2023,12,25,06,54,965.46
2023,12,25,06,55,965.46
2023,12,25,06,56,965.46
2023,12,25,06,57,965.46
2023,12,25,06,58,965.46
2023,12,25,06,59,965.46
2023,12,25,07,00,965.46
2023,12,25,07,01,965.46
2023,12,25,07,02,965.46
2023,12,25,07,03,965.46
2023,12,25,07,04,965.46
2023,12,25,07,05,965.46
2023,12,25,07,06,966.24
2023,12,25,07,07,981.14
2023,12,25,07,08,981.14
2023,12,25,07,09,981.14
2023,12,25,07,10,981.14
2023,12,25,07,11,981.14
2023,12,25,07,12,981.14
2023,12,25,07,13,981.14
2023,12,25,07,14,981.14
2023,12,25,07,15,981.14
2023,12,25,07,16,981.14
2023,12,25,07,17,981.14
2023,12,25,07,18,981.14
2023,12,25,07,19,981.14
2023,12,25,07,20,981.14
2023,12,25,07,21,981.14
2023,12,25,07,22,981.14
2023,12,25,07,23,981.14
2023,12,25,07,24,981.14
2023,12,25,07,25,981.14
2023,12,25,07,26,981.14
2023,12,25,07,27,981.14
2023,12,25,07,28,981.14
2023,12,25,07,29,981.14
2023,12,25,07,30,981.14
2023,12,25,07,31,981.14
2023,12,25,07,32,981.14
2023,12,25,07,33,981.14
2023,12,25,07,34,981.14
2023,12,25,07,35,981.14
2023,12,25,07,36,981.14
2023,12,25,07,37,981.14
2023,12,25,07,38,981.14
2023,12,25,07,39,981.14
2023,12,25,07,40,981.14
2023,12,25,07,41,981.14
2023,12,25,07,42,981.14
2023,12,25,07,43,981.14
2023,12,25,07,44,981.14
2023,12,25,07,45,981.14
2023,12,25,07,46,981.14
2023,12,25,07,47,981.14
2023,12,25,07,48,981.14
2023,12,25,07,49,938.44
2023,12,25,07,50,938.44
2023,12,25,07,51,938.44
2023,12,25,07,52,938.44
2023,12,25,07,53,938.44
2023,12,25,07,54,938.44
2023,12,25,07,55,938.44
2023,12,25,07,56,938.44
2023,12,25,07,57,938.44
2023,12,25,07,58,938.44
2023,12,25,07,59,938.44
2023,12,25,08,00,938.44
2023,12,25,08,01,938.44
2023,12,25,08,02,938.44
2023,12,25,08,03,938.44
2023,12,25,08,04,938.44
2023,12,25,08,05,938.44
2023,12,25,08,06,938.44
2023,12,25,08,07,938.44
2023,12,25,08,08,938.44
2023,12,25,08,09,938.44
2023,12,25,08,10,938.44
2023,12,25,08,11,938.44
2023,12,25,08,12,938.44
2023,12,25,08,13,938.44
2023,12,25,08,14,938.44
2023,12,25,08,15,938.44
2023,12,25,08,16,938.44
2023,12,25,08,17,938.44
2023,12,25,08,18,938.44
2023,12,25,08,19,938.44
2023,12,25,08,20,938.44
2023,12,25,08,21,938.44
2023,12,25,08,22,938.44
2023,12,25,08,23,938.44
2023,12,25,08,24,938.44
2023,12,25,08,25,938.44
2023,12,25,08,26,940.29
2023,12,25,08,27,975.42
2023,12,25,08,28,975.42
2023,12,25,08,29,975.42
2023,12,25,08,30,975.42
2023,12,25,08,31,975.42
2023,12,25,08,32,975.42
2023,12,25,08,33,975.42
2023,12,25,08,34,975.42
2023,12,25,08,35,975.42
2023,12,25,08,36,975.42
2023,12,25,08,37,975.42
2023,12,25,08,38,975.42
2023,12,25,08,39,975.42
2023,12,25,08,40,975.42
2023,12,25,08,41,968.85
2023,12,25,08,42,968.85
2023,12,25,08,43,968.85
2023,12,25,08,44,968.85
2023,12,25,08,45,968.85
2023,12,25,08,46,968.85
2023,12,25,08,47,968.85
2023,12,25,08,48,968.85
2023,12,25,08,49,968.85
2023,12,25,08,50,968.85
2023,12,25,08,51,968.85
2023,12,25,08,52,968.85
2023,12,25,08,53,968.85
2023,12,25,08,54,968.85
2023,12,25,08,55,968.85
2023,12,25,08,56,968.85
2023,12,25,08,57,968.85
2023,12,25,08,58,968.85
2023,12,25,08,59,968.85
2023,12,25,09,00,968.85
2023,12,25,09,01,968.85
2023,12,25,09,02,968.85
2023,12,25,09,03,968.85
2023,12,25,09,04,968.85
2023,12,25,09,05,968.85
2023,12,25,09,06,968.85
2023,12,25,09,07,968.85
2023,12,25,09,08,976.40
2023,12,25,09,09,976.40
2023,12,25,09,10,976.40
2023,12,25,09,11,976.40
2023,12,25,09,12,976.40
2023,12,25,09,13,976.40
2023,12,25,09,14,976.40
2023,12,25,09,15,976.40
2023,12,25,09,16,976.40
2023,12,25,09,17,976.40
2023,12,25,09,18,976.40
2023,12,25,09,19,976.40
2023,12,25,09,20,976.40
2023,12,25,09,21,976.40
2023,12,25,09,22,976.40
2023,12,25,09,23,976.40
2023,12,25,09,24,976.40
2023,12,25,09,25,976.40
2023,12,25,09,26,976.40
2023,12,25,09,27,976.40
2023,12,25,09,28,976.40
2023,12,25,09,29,976.40
2023,12,25,09,30,976.40
2023,12,25,09,31,976.40
2023,12,25,09,32,976.40
2023,12,25,09,33,976.40
2023,12,25,09,34,976.40
2023,12,25,09,35,976.40
2023,12,25,09,36,976.40
2023,12,25,09,37,976.40
2023,12,25,09,38,976.40
2023,12,25,09,39,976.40
2023,12,25,09,40,976.40
2023,12,25,09,41,976.40
2023,12,25,09,42,976.40
2023,12,25,09,43,976.40
2023,12,25,09,44,976.40
2023,12,25,09,45,976.40
2023,12,25,09,46,976.40
2023,12,25,09,47,976.40
2023,12,25,09,48,959.09
2023,12,25,09,49,959.09
2023,12,25,09,50,959.09
2023,12,25,09,51,959.09
2023,12,25,09,52,959.09
2023,12,25,09,53,959.09
2023,12,25,09,54,959.09
2023,12,25,09,55,959.09
2023,12,25,09,56,959.09
2023,12,25,09,57,959.09
2023,12,25,09,58,959.09
2023,12,25,09,59,959.09
2023,12,25,10,00,959.09
2023,12,25,10,01,959.09
2023,12,25,10,02,959.09
2023,12,25,10,03,959.09
2023,12,25,10,04,959.09
2023,12,25,10,05,959.09
2023,12,25,10,06,959.09
2023,12,25,10,07,959.09
2023,12,25,10,08,959.09
2023,12,25,10,09,959.09
2023,12,25,10,10,957.67
2023,12,25,10,11,957.67
2023,12,25,10,12,957.67
2023,12,25,10,13,957.67
2023,12,25,10,14,957.67
2023,12,25,10,15,957.67
2023,12,25,10,16,957.67
2023,12,25,10,17,957.67
2023,12,25,10,18,957.67
2023,12,25,10,19,957.67
2023,12,25,10,20,957.67
2023,12,25,10,21,957.67
2023,12,25,10,22,957.67
2023,12,25,10,23,957.67
2023,12,25,10,24,957.67
2023,12,25,10,25,957.67
2023,12,25,10,26,957.67
2023,12,25,10,27,957.67
2023,12,25,10,28,957.67
2023,12,25,10,29,957.67
2023,12,25,10,30,957.67
2023,12,25,10,31,957.67
2023,12,25,10,32,957.67
2023,12,25,10,33,957.67
2023,12,25,10,34,957.67
2023,12,25,10,35,957.67
2023,12,25,10,36,957.67
2023,12,25,10,37,957.67
2023,12,25,10,38,957.67
2023,12,25,10,39,957.67
2023,12,25,10,40,957.67
2023,12,25,10,41,957.67
2023,12,25,10,42,957.67
2023,12,25,10,43,957.67
2023,12,25,10,44,957.67
2023,12,25,10,45,957.67
2023,12,25,10,46,957.67
2023,12,25,10,47,957.67
2023,12,25,10,48,957.67
2023,12,25,10,49,957.67
2023,12,25,10,50,957.67
2023,12,25,10,51,957.67
2023,12,25,10,52,957.67
2023,12,25,10,53,947.61
2023,12,25,10,54,947.61
2023,12,25,10,55,947.61
2023,12,25,10,56,947.61
2023,12,25,10,57,947.61
2023,12,25,10,58,947.61
2023,12,25,10,59,947.61
2023,12,25,11,00,947.61
2023,12,25,11,01,947.61
2023,12,25,11,02,947.61
2023,12,25,11,03,947.61
2023,12,25,11,04,947.61
2023,12,25,11,05,947.61
2023,12,25,11,06,947.61
2023,12,25,11,07,947.61
2023,12,25,11,08,960.85
2023,12,25,11,09,960.85
2023,12,25,11,10,960.85
2023,12,25,11,11,960.85
2023,12,25,11,12,960.85
2023,12,25,11,13,954.46
2023,12,25,11,14,954.12
2023,12,25,11,15,954.12
2023,12,25,11,16,966.92
2023,12,25,11,17,966.92
2023,12,25,11,18,966.92
2023,12,25,11,19,966.92
2023,12,25,11,20,966.92
2023,12,25,11,21,966.92
2023,12,25,11,22,966.92
2023,12,25,11,23,966.92
2023,12,25,11,24,966.92
2023,12,25,11,25,966.92
2023,12,25,11,26,966.92
2023,12,25,11,27,966.92
2023,12,25,11,28,966.92
2023,12,25,11,29,966.92
2023,12,25,11,30,966.92
2023,12,25,11,31,966.92
2023,12,25,11,32,966.92
2023,12,25,11,33,962.75
2023,12,25,11,34,962.75
2023,12,25,11,35,962.75
2023,12,25,11,36,962.75
2023,12,25,11,37,962.75
2023,12,25,11,38,962.75
2023,12,25,11,39,962.75
2023,12,25,11,40,962.75
2023,12,25,11,41,962.75
2023,12,25,11,42,962.75
2023,12,25,11,43,962.75
2023,12,25,11,44,962.75
2023,12,25,11,45,985.10
2023,12,25,11,46,985.10
2023,12,25,11,47,988.42
2023,12,25,11,48,988.42
2023,12,25,11,49,989.50
2023,12,25,11,50,989.50
2023,12,25,11,51,989.50
2023,12,25,11,52,989.50
2023,12,25,11,53,989.50
2023,12,25,11,54,989.50
2023,12,25,11,55,991.37
2023,12,25,11,56,991.37
2023,12,25,11,57,991.37
2023,12,25,11,58,991.37
2023,12,25,11,59,991.37
2023,12,25,12,00,991.37
2023,12,25,12,01,991.37
2023,12,25,12,02,991.37
2023,12,25,12,03,991.37
2023,12,25,12,04,991.37
2023,12,25,12,05,991.37
2023,12,25,12,06,991.37
2023,12,25,12,07,991.37
2023,12,25,12,08,991.37
2023,12,25,12,09,991.37
2023,12,25,12,10,968.10
2023,12,25,12,11,968.10
2023,12,25,12,12,968.10
2023,12,25,12,13,968.10
2023,12,25,12,14,968.10
2023,12,25,12,15,968.10
2023,12,25,12,16,968.10
2023,12,25,12,17,968.10
2023,12,25,12,18,968.10
2023,12,25,12,19,968.10
2023,12,25,12,20,968.10
2023,12,25,12,21,968.10
2023,12,25,12,22,968.10
2023,12,25,12,23,968.10
2023,12,25,12,24,968.10
2023,12,25,12,25,968.10
2023,12,25,12,26,968.62
2023,12,25,12,27,978.53
2023,12,25,12,28,978.53
2023,12,25,12,29,978.53
2023,12,25,12,30,978.53
2023,12,25,12,31,978.53
2023,12,25,12,32,978.53
2023,12,25,12,33,978.53
2023,12,25,12,34,978.53
2023,12,25,12,35,978.53
2023,12,25,12,36,978.53
2023,12,25,12,37,978.53
2023,12,25,12,38,978.53
2023,12,25,12,39,978.53
2023,12,25,12,40,978.53
2023,12,25,12,41,978.53
2023,12,25,12,42,978.53
2023,12,25,12,43,978.53
2023,12,25,12,44,978.53
2023,12,25,12,45,978.53
2023,12,25,12,46,978.53
2023,12,25,12,47,978.53
2023,12,25,12,48,978.53
2023,12,25,12,49,978.53
2023,12,25,12,50,978.53
2023,12,25,12,51,978.53
2023,12,25,12,52,978.53
2023,12,25,12,53,978.53
2023,12,25,12,54,978.53
2023,12,25,12,55,978.71
2023,12,25,12,56,982.15
2023,12,25,12,57,982.15
2023,12,25,12,58,982.15
2023,12,25,12,59,981.67
2023,12,25,13,00,981.65
2023,12,25,13,01,981.65
2023,12,25,13,02,975.99
2023,12,25,13,03,975.99
2023,12,25,13,04,975.61
2023,12,25,13,05,968.30
2023,12,25,13,06,968.30
2023,12,25,13,07,968.30
2023,12,25,13,08,968.30
2023,12,25,13,09,968.30
2023,12,25,13,10,968.30
2023,12,25,13,11,968.30
2023,12,25,13,12,968.30
2023,12,25,13,13,968.30
2023,12,25,13,14,968.30
2023,12,25,13,15,968.30
2023,12,25,13,16,972.84
2023,12,25,13,17,972.84
2023,12,25,13,18,972.84
2023,12,25,13,19,972.84
2023,12,25,13,20,972.84
2023,12,25,13,21,972.84
2023,12,25,13,22,972.84
2023,12,25,13,23,972.84
2023,12,25,13,24,972.84
2023,12,25,13,25,972.84
2023,12,25,13,26,972.84
2023,12,25,13,27,972.84
2023,12,25,13,28,972.84
2023,12,25,13,29,972.84
2023,12,25,13,30,972.84
2023,12,25,13,31,972.84
2023,12,25,13,32,972.84
2023,12,25,13,33,972.84
2023,12,25,13,34,972.84
2023,12,25,13,35,964.78
2023,12,25,13,36,964.78
2023,12,25,13,37,964.78
2023,12,25,13,38,964.78
2023,12,25,13,39,964.78
2023,12,25,13,40,964.78
2023,12,25,13,41,964.78
2023,12,25,13,42,964.78
2023,12,25,13,43,964.78
2023,12,25,13,44,964.78
2023,12,25,13,45,964.78
2023,12,25,13,46,964.78
2023,12,25,13,47,964.78
2023,12,25,13,48,964.41
2023,12,25,13,49,964.41
2023,12,25,13,50,964.41
2023,12,25,13,51,964.41
2023,12,25,13,52,964.41
2023,12,25,13,53,964.41
2023,12,25,13,54,964.41
2023,12,25,13,55,964.41
2023,12,25,13,56,964.41
2023,12,25,13,57,964.41
2023,12,25,13,58,964.41
2023,12,25,13,59,964.41
2023,12,25,14,00,964.41
2023,12,25,14,01,964.41
2023,12,25,14,02,964.41
2023,12,25,14,03,964.41
2023,12,25,14,04,964.41
2023,12,25,14,05,975.31
2023,12,25,14,06,975.31
2023,12,25,14,07,975.31
2023,12,25,14,08,975.31
2023,12,25,14,09,975.31
2023,12,25,14,10,975.31
2023,12,25,14,11,975.31
2023,12,25,14,12,975.31
2023,12,25,14,13,975.31
2023,12,25,14,14,975.31
2023,12,25,14,15,975.31
2023,12,25,14,16,975.31
2023,12,25,14,17,977.55
2023,12,25,14,18,977.55
2023,12,25,14,19,977.55
2023,12,25,14,20,983.51
2023,12,25,14,21,983.51
2023,12,25,14,22,983.51
2023,12,25,14,23,983.51
2023,12,25,14,24,983.51
2023,12,25,14,25,983.51
2023,12,25,14,26,986.76
2023,12,25,14,27,986.76
2023,12,25,14,28,986.76
2023,12,25,14,29,986.76
2023,12,25,14,30,986.76
2023,12,25,14,31,986.76
2023,12,25,14,32,986.76
2023,12,25,14,33,980.09
2023,12,25,14,34,980.09
2023,12,25,14,35,980.09
2023,12,25,14,36,980.09
2023,12,25,14,37,980.09
2023,12,25,14,38,982.53
2023,12,25,14,39,982.53
2023,12,25,14,40,982.53
2023,12,25,14,41,982.53
2023,12,25,14,42,982.53
2023,12,25,14,43,982.53
2023,12,25,14,44,982.53
2023,12,25,14,45,982.53
2023,12,25,14,46,982.53
2023,12,25,14,47,982.53
2023,12,25,14,48,982.53
2023,12,25,14,49,982.53
2023,12,25,14,50,982.53
2023,12,25,14,51,982.53
2023,12,25,14,52,982.53
2023,12,25,14,53,982.53
2023,12,25,14,54,982.53
2023,12,25,14,55,982.53
2023,12,25,14,56,982.53
2023,12,25,14,57,982.53
2023,12,25,14,58,982.53
2023,12,25,14,59,982.53
2023,12,25,15,00,982.53
2023,12,25,15,01,982.53
2023,12,25,15,02,955.67
2023,12,25,15,03,955.67
2023,12,25,15,04,955.67
2023,12,25,15,05,955.67
2023,12,25,15,06,955.67
2023,12,25,15,07,955.67
2023,12,25,15,08,955.67
2023,12,25,15,09,955.67
2023,12,25,15,10,955.67
2023,12,25,15,11,955.67
2023,12,25,15,12,955.67
2023,12,25,15,13,955.67
2023,12,25,15,14,955.67
2023,12,25,15,15,955.67
2023,12,25,15,16,970.64
2023,12,25,15,17,970.64
2023,12,25,15,18,970.64
2023,12,25,15,19,970.64
2023,12,25,15,20,970.64
2023,12,25,15,21,970.64
2023,12,25,15,22,970.64
2023,12,25,15,23,970.64
2023,12,25,15,24,970.64
2023,12,25,15,25,970.64
2023,12,25,15,26,970.64
2023,12,25,15,27,970.64
2023,12,25,15,28,970.64
2023,12,25,15,29,970.64
2023,12,25,15,30,970.64
2023,12,25,15,31,970.64
2023,12,25,15,32,970.64
2023,12,25,15,33,970.64
2023,12,25,15,34,970.64
2023,12,25,15,35,970.64
2023,12,25,15,36,970.64
2023,12,25,15,37,970.64
2023,12,25,15,38,975.38
2023,12,25,15,39,975.38
2023,12,25,15,40,975.38
2023,12,25,15,41,975.38
2023,12,25,15,42,973.35
2023,12,25,15,43,973.35
2023,12,25,15,44,973.35
2023,12,25,15,45,973.35
2023,12,25,15,46,973.35
2023,12,25,15,47,973.35
2023,12,25,15,48,973.35
2023,12,25,15,49,973.35
2023,12,25,15,50,973.35
2023,12,25,15,51,970.07
2023,12,25,15,52,970.07
2023,12,25,15,53,970.07
2023,12,25,15,54,970.07
2023,12,25,15,55,970.07
2023,12,25,15,56,970.07
2023,12,25,15,57,970.07
2023,12,25,15,58,970.07
2023,12,25,15,59,970.07
2023,12,25,16,00,970.07
2023,12,25,16,01,991.77
2023,12,25,16,02,991.77
2023,12,25,16,03,991.77
2023,12,25,16,04,991.77
2023,12,25,16,05,991.77
2023,12,25,16,06,991.77
2023,12,25,16,07,985.54
2023,12,25,16,08,985.41
2023,12,25,16,09,985.41
2023,12,25,16,10,985.71
2023,12,25,16,11,985.71
2023,12,25,16,12,985.71
2023,12,25,16,13,987.23
2023,12,25,16,14,987.23
2023,12,25,16,15,987.23
2023,12,25,16,16,987.23
2023,12,25,16,17,987.23
2023,12,25,16,18,987.23
2023,12,25,16,19,987.23
2023,12,25,16,20,987.23
2023,12,25,16,21,987.61
2023,12,25,16,22,987.61
2023,12,25,16,23,987.61
2023,12,25,16,24,974.54
2023,12,25,16,25,974.54
2023,12,25,16,26,974.54
2023,12,25,16,27,974.54
2023,12,25,16,28,974.54
2023,12,25,16,29,990.96
2023,12,25,16,30,990.96
2023,12,25,16,31,990.96
2023,12,25,16,32,990.96
2023,12,25,16,33,990.96
2023,12,25,16,34,990.96
2023,12,25,16,35,990.96
2023,12,25,16,36,973.01
2023,12,25,16,37,973.01
2023,12,25,16,38,973.01
2023,12,25,16,39,973.01
2023,12,25,16,40,973.01
2023,12,25,16,41,984.69
2023,12,25,16,42,984.69
2023,12,25,16,43,984.69
2023,12,25,16,44,984.69
2023,12,25,16,45,984.69
2023,12,25,16,46,986.69
2023,12,25,16,47,986.15
2023,12,25,16,48,986.15
2023,12,25,16,49,986.15
2023,12,25,16,50,986.93
2023,12,25,16,51,986.93
2023,12,25,16,52,986.93
2023,12,25,16,53,986.93
2023,12,25,16,54,986.93
2023,12,25,16,55,985.68
2023,12,25,16,56,985.61
2023,12,25,16,57,985.61
2023,12,25,16,58,985.61
2023,12,25,16,59,985.61
2023,12,25,17,00,985.61
2023,12,25,17,01,985.61
2023,12,25,17,02,985.61
2023,12,25,17,03,985.61
2023,12,25,17,04,985.61
2023,12,25,17,05,985.61
2023,12,25,17,06,985.61